Zurück zum Katalog

ICEYE-X56

AktivWissenschaftSSO
NORAD 64574·PAYLOAD·🇫🇮 Finland

Gestartet Jun 23, 2025 von Vandenberg Space Force Base

Loading…

Nächste Überflüge (nächste 24 Stunden)

TLE

AktuellSource: Space-Track

Epoche: Sep 14, 2026, 22:28 UTC

1 64574U 25135AY  26257.93638146  .00002753  00000-0  25027-3 0  9990
2 64574  97.7820  12.2534 0003019  61.1734 298.9790 14.96055544 67340

Verfolge ICEYE-X56 in Echtzeit mit AllMySat

Download on the App Store